TimeEST,TemperatureF,Dew PointF,Humidity,Sea Level PressureIn,VisibilityMPH,Wind Direction,Wind SpeedMPH,Gust SpeedMPH,PrecipitationIn,Events,Conditions,WindDirDegrees,DateUTC
12:53 AM,35.1,27.0,72,30.24,10.0,North,4.6,-,N/A,,Clear,360,2012-12-15 05:53:00
1:53 AM,34.0,27.0,75,30.25,10.0,Calm,Calm,-,N/A,,Clear,0,2012-12-15 06:53:00
2:53 AM,34.0,27.0,75,30.25,10.0,North,5.8,-,N/A,,Clear,360,2012-12-15 07:53:00
3:53 AM,30.9,27.0,85,30.26,10.0,Calm,Calm,-,N/A,,Clear,0,2012-12-15 08:53:00
4:53 AM,33.1,28.0,82,30.25,10.0,North,3.5,-,N/A,,Clear,360,2012-12-15 09:53:00
5:53 AM,33.1,28.0,82,30.27,10.0,North,3.5,-,N/A,,Clear,360,2012-12-15 10:53:00
6:53 AM,33.1,28.0,82,30.28,10.0,North,4.6,-,N/A,,Clear,360,2012-12-15 11:53:00
7:53 AM,32.0,28.0,85,30.31,8.0,Calm,Calm,-,N/A,,Clear,0,2012-12-15 12:53:00
8:53 AM,39.0,33.1,79,30.32,7.0,Calm,Calm,-,N/A,,Clear,0,2012-12-15 13:53:00
9:53 AM,43.0,28.9,58,30.32,10.0,NE,10.4,-,N/A,,Clear,50,2012-12-15 14:53:00
10:53 AM,45.0,27.0,49,30.31,10.0,NNE,9.2,-,N/A,,Clear,30,2012-12-15 15:53:00
11:53 AM,46.0,27.0,47,30.30,10.0,North,9.2,-,N/A,,Clear,10,2012-12-15 16:53:00
12:53 PM,46.9,28.0,48,30.27,10.0,North,4.6,-,N/A,,Clear,10,2012-12-15 17:53:00
1:53 PM,48.0,27.0,44,30.26,10.0,Calm,Calm,-,N/A,,Clear,0,2012-12-15 18:53:00
2:53 PM,46.9,27.0,46,30.26,10.0,NNE,4.6,-,N/A,,Clear,20,2012-12-15 19:53:00
3:53 PM,44.1,26.1,49,30.26,10.0,NNE,4.6,-,N/A,,Clear,20,2012-12-15 20:53:00
4:53 PM,41.0,28.9,62,30.26,10.0,Calm,Calm,-,N/A,,Clear,0,2012-12-15 21:53:00
5:53 PM,39.0,28.9,67,30.26,10.0,Calm,Calm,-,N/A,,Clear,0,2012-12-15 22:53:00
6:53 PM,37.0,28.9,73,30.26,10.0,Calm,Calm,-,N/A,,Clear,0,2012-12-15 23:53:00
7:53 PM,37.0,30.0,76,30.27,10.0,ENE,3.5,-,N/A,,Clear,70,2012-12-16 00:53:00
8:53 PM,39.0,30.0,70,30.27,10.0,ENE,3.5,-,N/A,,Clear,60,2012-12-16 01:53:00
9:53 PM,39.0,30.0,70,30.25,10.0,ENE,3.5,-,N/A,,Clear,70,2012-12-16 02:53:00
10:53 PM,39.9,30.9,70,30.25,10.0,East,3.5,-,N/A,,Overcast,90,2012-12-16 03:53:00
11:53 PM,39.9,32.0,73,30.23,10.0,ENE,4.6,-,N/A,,Overcast,60,2012-12-16 04:53:00